Regional Weather Roundup
Issued by NWS Goodland, KS

Home | Current Version | Previous Version | Graphics & Text | Print | Product List | Glossary On
Versions: 1 2 3 4 5 6 7 8 9 10 11 12 13 14 15 16 17 18 19 20 21 22 23 24 25 26 27 28 29 30 31 32 33 34 35 36 37 38 39 40 41 42 43 44 45 46 47 48 49 50
778
ASUS43 KGLD 232308
RWRGLD

GOODLAND FORECAST AREA HOURLY WEATHER ROUNDUP
NATIONAL WEATHER SERVICE GOODLAND KS
500 PM MDT SUN APR 23 2017

...OFFICIAL OBSERVATIONS...

CITY           SKY/WX    TMP DP  RH WIND       PRES   REMARKS
GOODLAND KS    CLOUDY    67  39  35 S25G43    29.81F
HILL CITY KS   CLOUDY    70  30  22 S22G36    29.90F
IMPERIAL NEB   CLOUDY    69  37  30 S30G38    29.78F
MCCOOK NEB     CLOUDY    69  33  26 S28G38    29.83F
AKRON CO       CLOUDY    68  36  30 S21       29.76F
BURLINGTON CO  NOT AVBL
LIMON CO       CLOUDY    65  36  34 S20G28    29.81F
$$

...UNOFFICIAL OBSERVATIONS...

CITY           SKY/WX    TMP DP  RH WIND       PRES   REMARKS
LENORA KS        N/A     68  32  26 MISG        N/A
NORTON KS      SUNNY     68  21  17 S24G33    29.86F
SHARON SPRINGS   N/A     67  41  39 S29G40      N/A
TRENTON NEB      N/A     68  32  26 S16G24      N/A
KIT CARSON CO    N/A     71  40  32 MISG        N/A
$$




USA.gov is the U.S. government's official web portal to all federal, state and local government web resources and services.